{"data":{"norad_id":65529,"epoch":"2026-09-20T22:22:20.373600Z","epoch_age_seconds":74588,"freshness":"FRESH","line1":"1 65529U 25200K   26263.93218025  .00011724  00000+0  36492-3 0  9996","line2":"2 65529  97.2854 330.2533 0000696 101.7782 258.3539 15.33444680 58703","mean_motion":15.3344468,"eccentricity":6.96e-5,"inclination_deg":97.2854,"raan_deg":330.2533,"arg_perigee_deg":101.7782,"mean_anomaly_deg":258.3539,"bstar":0.00036492,"rev_number":5870,"period_min":93.906224253228,"perigee_km":465.06780636675,"apogee_km":466.02044677957,"semimajor_km":6843.6811265732,"source":"CELESTRAK","updated_at":"2026-09-21T09:00:35.649374Z"}}